Domov               UVHVVR             MKGP            O straneh              
ZDRAVSTVENO VARSTVO RASTLIN
  MREŽA AGROMET. POSTAJ
 ► PROGNOSTIČNA OBVESTILA
AGROMETEOROLOŠKI PODATKI -
ARSO
OBVLADOVANJE TVEGANJ ZARADI
NEUGODNIH VREMENSKIH RAZMER
  ► NARAVNE NESREČE
  ► SUŠA/MOČA
  ► NAMAKANJE
  ► ŽLED (gozdarstvo)
KARTOGRAFSKI PRIKAZI
SPLETNE POVEZAVE
PROJEKTI IN PUBLIKACIJE

AGROMETEOROLOŠKA MREŽA: VREMENSKE POSTAJE IN FENOLOŠKA OPAZOVANJA

Pregled podatkov za lokacijo Slap, meteorološka postaja 49193

Pregled senzorjev na lokaciji

ID Ime Zadnja
vrednost
Datum
zadnje
spremembe
Tip
senzorja
4318 Omočenost lista (U) 0 U 23.3.2019 00:29 A730WET
3694 Padavine (mm) 0 mm 23.3.2019 00:29 Rain-O-Matic
3688 Relativna vlaga 2 m (% RH) 32,11 % RH 23.3.2019 00:29 50YA
3691 Temperatura tal 5 cm (°C) 9,09 °C 23.3.2019 00:29 99TG411E
3687 Temperatura 2 m (°C) 14,76 °C 23.3.2019 00:29 50YA
3693 Smer vetra (°) 340,59 ° 23.3.2019 00:29 566.2S-130
3692 Hitrost vetra (km/h) 8,33 km/h 23.3.2019 00:29 566.2S-176 (200km/h)

Pregled podatkov zadnjih 24 ur

Zap.
št.
Datum in čas Slap
Omočenost
lista
Padavine Relativna
vlaga
2
m
Temperatura
tal
5
cm
Temperatura
2
m
Smer
vetra
Hitrost
vetra
1 23.3.2019 00:00
2 22.3.2019 23:30 0 0 32,1 9,1 14,8 340,6 8,3
3 22.3.2019 23:00 0 0 31,6 9,1 14,8 342,6 7,5
4 22.3.2019 22:30 0 0 30,4 9,1 15,1 0,6 7,5
5 22.3.2019 22:00 0 0 29,2 9 15,6 327 7,8
6 22.3.2019 21:30 0 0 28,9 9 15,8 312,7 10,6
7 22.3.2019 21:00 0 0 27,9 9 16,2 328,7 10,8
8 22.3.2019 20:30 0 0 26,8 9 16,5 327,1 10,7
9 22.3.2019 20:00 0 0 25,6 8,9 16,8 311,9 11,2
10 22.3.2019 19:30 0 0 25,6 8,9 16,8 320,1 12,9
11 22.3.2019 19:00 0 0 26,2 8,8 17 324,4 13,7
12 22.3.2019 18:30 0 0 24,5 8,8 17,5 318,6 10,4
13 22.3.2019 18:00 0 0 25,5 8,7 17,8 344,2 9,1
14 22.3.2019 17:30 0 0 23,6 8,8 18,7 354,8 6,5
15 22.3.2019 17:00 0 0 22 8,8 19,5 303,7 8,2
16 22.3.2019 16:30 0 0 21 8,7 19,6 231,4 7,7
17 22.3.2019 16:00 0 0 19,8 8,8 20,2 168,5 7,5
18 22.3.2019 15:30 0 0 18,4 8,7 20,2 132,2 7,7
19 22.3.2019 15:00 0 0 19,7 8,6 20,5 42,3 10,8
20 22.3.2019 14:30 0 0 20,2 8,6 20,4 46,5 9,1
21 22.3.2019 14:00 0 0 20,4 8,5 20,2 95,5 9,3
22 22.3.2019 13:30 0 0 19,5 8,5 20,1 81,2 7,9
23 22.3.2019 13:00 0 0 18,5 8,4 19,5 45,4 8,1
24 22.3.2019 12:30 0 0 18,9 8,3 18,8 340,8 8,2
25 22.3.2019 12:00 0 0 18,4 8,3 18,4 346,3 7,8
26 22.3.2019 11:30 0 0 18,9 8,3 17,7 5,2 11,3
27 22.3.2019 11:00 0 0 20,1 8,3 16,9 326,8 13,2
28 22.3.2019 10:30 0 0 22,9 8,3 16,4 309,1 14,1
29 22.3.2019 10:00 0 0 27,4 8,2 15,6 317,8 11,3
30 22.3.2019 09:30 0 0 31,3 8,2 14,5 336,2 10,5
31 22.3.2019 09:00 0 0 32,9 8,2 14 278,8 9,3
32 22.3.2019 08:30 0 0 36,4 8,2 12,9 284,6 8,8
33 22.3.2019 08:00 0 0 41,5 8,1 11,3 314,6 8,7
34 22.3.2019 07:30 0 0 45,5 8 9,2 274,7 8,5
35 22.3.2019 07:00 0 0 41,4 8 9,8 333 8
36 22.3.2019 06:30 0 0 39,1 8 10,3 269,2 8,7
37 22.3.2019 06:00 0 0 44,5 8 8,8 348 4,8
38 22.3.2019 05:30 0 0 41,4 8,1 9,7 332,1 7,4
39 22.3.2019 05:00 0 0 39,4 8,1 10,3 355,4 9,8
40 22.3.2019 04:30 0 0 37 8,1 10,7 320,6 11,5
41 22.3.2019 04:00 0 0 37,7 8,2 10,5 358,9 10,6
42 22.3.2019 03:30 0 0 36,4 8,2 10,7 337,6 13
43 22.3.2019 03:00 0 0 36,5 8,2 10,7 331,6 15,1
44 22.3.2019 02:30 0 0 36,8 8,2 10,9 353,6 10,8
45 22.3.2019 02:00 0 0 36,8 8,2 11,2 16,3 9,9
46 22.3.2019 01:30 0 0 36,1 8,2 11,6 3,8 10,9
47 22.3.2019 01:00 0 0 38,3 8,2 11,5 335,7 12
48 22.3.2019 00:30 0 0 39,5 8,2 11,2 346,5 9,5
© 2011 Ministrstvo za kmetijstvo, gozdarstvo in prehrano. Vse pravice pridržane.